Banff, Canada 16 day weather forecast

Slopes altitude range 1630 m - 2730m

Number of lifts: 26 Pistes: 120km

In some cases the lift and piste totals shown are for the ski domain (e.g. Three Valleys) rather than individual resort (e.g. Courchevel)

Overview

The 16 day weather forecast is fully updated 4 times every day.

    • Sun 17 FEB 2019
    • Sun 17
    • -25C -22C
    • Mon 18 FEB 2019
    • Mon 18
    • -27C -25C
    • Tue 19 FEB 2019
    • Tue 19
    • -20C -19C
    • Wed 20 FEB 2019
    • Wed 20
    • -14C -13C
    • Thu 21 FEB 2019
    • Thu 21
    • -18C -15C
    • Fri 22 FEB 2019
    • Fri 22
    • -20C -19C
    • Sat 23 FEB 2019
    • Sat 23
    • -18C -15C
    • Sun 24 FEB 2019
    • Sun 24
    • -19C -15C
    • Mon 25 FEB 2019
    • Mon 25
    • -26C -24C
    • Tue 26 FEB 2019
    • Tue 26
    • -29C -27C
    • Wed 27 FEB 2019
    • Wed 27
    • -21C -10C
    • Thu 28 FEB 2019
    • Thu 28
    • -15C -8C
    • Fri 01 MAR 2019
    • Fri 01
    • -15C -7C
    • Sat 02 MAR 2019
    • Sat 02
    • -11C -7C
    • Sun 03 MAR 2019
    • Sun 03
    • -15C -8C
    • Mon 04 MAR 2019
    • Mon 04
    • -16C -11C

Date:

Time Type 0°C level Temp Chill Snow Cloud Speed Gust Dir Press
12:00 0m -22°C -22_4 1cm 100% 4mph 4mph 1033mB
15:00 0m -25°C -25_3 0cm 100% 3mph 4mph 1036mB
18:00 0m -19°C -19_4 0cm 99% 4mph 5mph 1035mB
21:00 0m -19°C -19_4 0cm 90% 4mph 4mph 1033mB
0:00 0m -19°C -19_4 0cm 92% 4mph 5mph 1033mB
3:00 0m -25°C -25_3 0cm 49% 3mph 3mph 1038mB
6:00 0m -26°C -26_2 0cm 52% 2mph 2mph 1039mB
9:00 0m -27°C -27_2 0cm 41% 2mph 3mph 1039mB
12:00 0m -25°C -25_3 0cm 32% 3mph 3mph 1039mB
15:00 0m -25°C -25_4 0cm 10% 4mph 4mph 1038mB
18:00 0m -15°C -15_4 0cm 5% 4mph 5mph 1032mB
21:00 338m -15°C -15_5 0cm 7% 5mph 6mph 1027mB
0:00 165m -15°C -15_5 0cm 15% 5mph 7mph 1025mB
3:00 0m -20°C -20_5 0cm 2% 5mph 6mph 1028mB
6:00 0m -20°C -20_5 0cm 22% 5mph 6mph 1028mB
9:00 0m -20°C -20_6 0cm 77% 6mph 6mph 1026mB
12:00 0m -19°C -19_6 0cm 69% 6mph 6mph 1024mB
15:00 0m -20°C -20_6 0cm 74% 6mph 7mph 1023mB
18:00 28m -14°C -14_6 0cm 84% 6mph 8mph 1018mB
21:00 508m -14°C -14_6 0cm 97% 6mph 9mph 1013mB
0:00 375m -14°C -14_5 1cm 98% 5mph 8mph 1011mB
3:00 0m -14°C -14_4 1cm 100% 4mph 5mph 1013mB
6:00 0m -14°C -14_3 1cm 100% 3mph 3mph 1013mB
9:00 0m -14°C -14_2 1cm 100% 2mph 3mph 1013mB
12:00 4m -13°C -13_3 1cm 99% 3mph 4mph 1014mB
15:00 4m -13°C -13_3 1cm 99% 3mph 4mph 1015mB
18:00 562m -10°C -10_4 1cm 98% 4mph 6mph 1014mB
21:00 743m -10°C -10_4 1cm 95% 4mph 5mph 1013mB
0:00 506m -10°C -10_4 1cm 97% 4mph 6mph 1015mB
3:00 133m -13°C -13_5 1cm 100% 5mph 7mph 1020mB
6:00 0m -15°C -15_5 2cm 100% 5mph 6mph 1024mB
9:00 0m -17°C -17_4 1cm 100% 4mph 4mph 1026mB
12:00 0m -15°C -15_3 1cm 100% 3mph 3mph 1028mB
15:00 0m -18°C -18_2 1cm 100% 2mph 2mph 1029mB
18:00 103m -13°C -13_2 1cm 83% 2mph 3mph 1025mB
21:00 488m -13°C -13_4 0cm 71% 4mph 5mph 1022mB
0:00 385m -13°C -13_4 0cm 84% 4mph 6mph 1021mB
3:00 0m -19°C -19_5 0cm 34% 5mph 5mph 1024mB
6:00 0m -20°C -20_5 0cm 33% 5mph 6mph 1024mB
9:00 0m -20°C -20_5 0cm 45% 5mph 6mph 1023mB
12:00 0m -19°C -19_6 0cm 46% 6mph 6mph 1023mB
15:00 0m -20°C -20_6 0cm 68% 6mph 6mph 1022mB
18:00 21m -14°C -14_7 0cm 80% 7mph 10mph 1017mB
21:00 419m -14°C -14_7 0cm 97% 7mph 10mph 1012mB
0:00 405m -14°C -14_7 0cm 98% 7mph 11mph 1012mB
3:00 11m -14°C -14_7 0cm 100% 7mph 7mph 1014mB
6:00 0m -16°C -16_6 0cm 72% 6mph 7mph 1016mB
9:00 0m -16°C -16_6 0cm 83% 6mph 7mph 1017mB
12:00 0m -15°C -15_6 0cm 92% 6mph 7mph 1017mB
15:00 0m -17°C -17_5 0cm 100% 5mph 6mph 1017mB
18:00 487m -10°C -10_4 0cm 100% 4mph 6mph 1013mB
21:00 925m -10°C -10_2 1cm 100% 2mph 3mph 1011mB
0:00 617m -10°C -10_5 1cm 100% 5mph 6mph 1011mB
3:00 179m -12°C -12_6 1cm 100% 6mph 9mph 1014mB
6:00 0m -15°C -15_5 2cm 100% 5mph 7mph 1017mB
9:00 0m -17°C -17_5 1cm 100% 5mph 6mph 1020mB
12:00 0m -15°C -15_4 1cm 100% 4mph 5mph 1024mB
15:00 0m -19°C -19_5 1cm 100% 5mph 5mph 1028mB
18:00 0m -18°C -18_5 1cm 99% 5mph 7mph 1029mB
21:00 0m -17°C -17_5 1cm 97% 5mph 7mph 1029mB
0:00 0m -18°C -18_5 1cm 98% 5mph 7mph 1031mB
3:00 0m -22°C -22_3 1cm 96% 3mph 3mph 1035mB
6:00 0m -24°C -24_1 1cm 96% 1mph 1mph 1037mB
9:00 0m -25°C -25_0 1cm 96% 0mph 0mph 1039mB
12:00 0m -24°C -24_1 1cm 94% 1mph 1mph 1040mB
15:00 0m -26°C -26_1 1cm 85% 1mph 1mph 1041mB
18:00 0m -21°C -21_4 1cm 83% 4mph 5mph 1039mB
21:00 0m -21°C -21_5 1cm 98% 5mph 5mph 1037mB
0:00 0m -21°C -21_5 1cm 97% 5mph 6mph 1038mB
3:00 0m -28°C -28_2 0cm 81% 2mph 3mph 1044mB
6:00 0m -29°C -29_4 0cm 69% 4mph 4mph 1046mB
9:00 0m -29°C -29_4 0cm 20% 4mph 5mph 1047mB
12:00 0m -27°C -27_4 0cm 15% 4mph 5mph 1047mB
15:00 0m -27°C -27_4 0cm 1% 4mph 5mph 1047mB
18:00 0m -16°C -16_2 0cm 0% 2mph 3mph 1042mB
21:00 0m -16°C -16_3 0cm 13% 3mph 2mph 1038mB
0:00 0m -16°C -16_2 0cm 25% 2mph 3mph 1037mB
3:00 0m -21°C -21_4 0cm 16% 4mph 5mph 1040mB
6:00 0m -21°C -21_6 0cm 8% 6mph 6mph 1040mB
Afternoon 0mm 0 286m -10°C -10_7 0cm 13% 7mph 11mph 1032mB
Morning 0mm 0 0m -13°C -13_7 0cm 50% 7mph 11mph 1034mB
Afternoon 0mm 0 592m -8°C -8_5 0cm 71% 5mph 9mph 1031mB
Morning 0mm 0.0625 68m -11°C -11_3 1cm 80% 3mph 4mph 1034mB
Afternoon 0mm 0 618m -7°C -7_7 0cm 50% 7mph 14mph 1026mB
Morning 0mm 0 418m -9°C -9_6 0cm 89% 6mph 11mph 1018mB
Afternoon 0mm 0 701m -7°C -7_8 0cm 97% 8mph 16mph 1019mB
Morning 0mm 0.375 0m -14°C -14_5 3cm 81% 5mph 6mph 1017mB
Afternoon 0mm 0 599m -8°C -8_5 0cm 72% 5mph 10mph 1005mB
Morning 0mm 0.0625 0m -13°C -13_3 1cm 86% 3mph 4mph 1009mB
Afternoon 0mm 0 54m -11°C -11_7 0cm 93% 7mph 13mph 1019mB
Morning 0.015625mm 0.0625 0m -17°C -17_3 1cm 90% 3mph 4mph 1029mB

16 day outlook at a glance

Forecast issued: 2/17/2019 1:33:24 PM

Chat

Your comments and questions. In a resort? Let us know what it's like!


Characters left 250

For terms and conditions see Readers Comments on the Cookie and privacy policy page.